Regional Weather Roundup
Issued by NWS Sterling, VA

Home | Current Version | Previous Version | Text Only | Print | Product List | Glossary On
Versions: 1 2 3 4 5 6 7 8 9 10 11 12 13 14 15 16 17 18 19 20 21 22 23 24 25 26 27 28 29 30 31 32 33 34 35 36 37 38 39 40 41 42 43 44 45 46 47 48 49 50
000
ASUS41 KLWX 031610
RWRLWX

REGIONAL WEATHER ROUNDUP
NATIONAL WEATHER SERVICE BALTIMORE MD/WASHINGTON DC
1200 PM EDT TUE MAY 03 2016

Note: "FAIR" indicates few or no clouds below 12,000 feet
with no significant weather and/or obstructions to visibility.
 TC=TEMPERATURE CELSIUS

 * =Non NWS site. Station does not report precipitation (e.g. rain,
    snow, etc.), thunder, or fog.

DCZ001-MDZ009-015-VAZ040>042-051-053>054-031700-
WASHINGTON METRO

CITY           SKY/WX    TMP DP  RH WIND       PRES   REMARKS
WASHINGTON NAT CLOUDY    69  61  75 N7        29.79F
DULLES         PTSUNNY   65  57  75 NW8       29.82R
ANDREWS AFB    CLOUDY    68  59  73 N5        29.77F
FT BELVOIR     FAIR      69  58  68 NW9       29.80R
QUANTICO       CLOUDY    67  62  84 S5        29.81S
COLLEGE PARK*  FAIR      66  59  77 NW5       29.78S
LEESBURG*      PTSUNNY   66  61  82 NW5       29.82R
MANASSAS*      PTSUNNY   68  63  83 NW8       29.81R
GAITHERSBURG*  CLOUDY    63  57  82 NW5       29.84F

$$

MDZ006>007-011-014-031700-
BALTIMORE METRO

CITY           SKY/WX    TMP DP  RH WIND       PRES   REMARKS
BWI AIRPORT    CLOUDY    62  60  93 NE8       29.79S FOG
MD SCIENCE CTR   N/A     63  58  83 MISG      29.81S
MARTIN STATE   CLOUDY    61  61 100 N7        29.83R FOG
ANNAPOLIS      CLOUDY    60  59  96 N6        29.80S FOG
FORT MEADE*    CLOUDY    63  59  88 NE7       29.82S

$$

MDZ012-015-019>023-031700-
MARYLAND EASTERN SHORE

CITY           SKY/WX    TMP DP  RH WIND       PRES   REMARKS
OCEAN CITY     CLOUDY    67  65  93 W5        29.78S
SALISBURY      LGT RAIN  67  64  90 W8        29.78S
CAMBRIDGE*     CLOUDY    64  61  88 NW5       29.79S
EASTON*        CLOUDY   N/A N/A N/A NW5       29.83S

$$

MDZ017>025-031700-
SOUTHERN MARYLAND

CITY           SKY/WX    TMP DP  RH WIND       PRES   REMARKS
PATUXENT RIVER CLOUDY    68  61  78 NW5       29.79F
ST INIGOES     PTSUNNY   68  64  87 CALM      29.78F
LEONARDTOWN*   PTSUNNY   66  61  82 N3        29.81F

$$

MDZ003>005-031700-
NORTH CENTRAL MARYLAND

CITY           SKY/WX    TMP DP  RH WIND       PRES   REMARKS
FREDERICK*     CLOUDY    61  57  88 NE10      29.84S
HAGERSTOWN APT CLOUDY    64  54  69 NW13G20   29.82F
WESTMINSTER*   CLOUDY    55  36  47 NE6       29.82S HAZE

$$

MDZ501>502-031700-
WESTERN MARYLAND

CITY           SKY/WX    TMP DP  RH WIND       PRES   REMARKS
OAKLAND*       PTSUNNY   55  45  67 NW7       29.86S
CUMBERLAND*    MOSUNNY   68  52  56 CALM      29.84F

$$

VAZ025>031-031700-
SHENANDOAH VALLEY

CITY           SKY/WX    TMP DP  RH WIND       PRES   REMARKS
WINCHESTER*    CLOUDY    66  55  68 NE3       29.82R
FRONT ROYAL*   CLOUDY    64  59  82 CALM      29.81S
LURAY*         CLOUDY    64  61  88 N8        29.81S
NEW MARKET*    CLOUDY    64  58  82 N6        29.80S
STAUNTON*      PTSUNNY   70  60  68 CALM      29.83S
WAYNESBORO*    PTSUNNY   68  57  68 CALM      29.82S

$$

WVZ021-048>050-054>055-031700-
EASTERN WEST VIRGINIA PANHANDLE

CITY           SKY/WX    TMP DP  RH WIND       PRES   REMARKS
MARTINSBURG    PTSUNNY   65  55  70 NE9       29.81F
PETERSBURG*    FAIR      69  56  62 CALM      29.81F

$$

VAZ036>039-050-031700-
CENTRAL FOOTHILLS

CITY           SKY/WX    TMP DP  RH WIND       PRES   REMARKS
CHARLOTTESVILL FAIR      73  57  57 N5        29.79F
CULPEPER*      PTSUNNY   69  60  72 N9        29.81F
ORANGE*        PTSUNNY   72  63  73 NE5       29.80F
GORDONSVILLE*  FAIR      71  60  69 CALM      29.78F
WARRENTON*     CLOUDY    70  56  62 N6        29.80F

$$

VAZ055>057-031700-
NORTH AND CENTRAL PIEDMONT

CITY           SKY/WX    TMP DP  RH WIND       PRES   REMARKS
FREDERICKSBRG* PTSUNNY   69  62  79 N7        29.79R
STAFFORD*      PTSUNNY   69  60  74 N8        29.84R

$$

NCZ024-NYZ072-PAZ021-071-VAZ022-071-031700-
OTHER REGIONAL OBSERVATIONS

CITY           SKY/WX    TMP DP  RH WIND       PRES   REMARKS
NEW YORK CITY  CLOUDY    52  50  93 E8        29.87F FOG
PHILADELPHIA   CLOUDY    57  53  86 NE9       29.83S
PITTSBURGH     MOSUNNY   55  43  63 VRB5      29.86F
ROANOKE        CLOUDY    69  57  65 W7        29.85R
RICHMOND       CLOUDY    69  63  81 SW6       29.79F
RALEIGH        CLOUDY    69  65  86 SW10      29.84S

$$

ANZ530>537-031700-
MARINE OBSERVATIONS

STATION/POSITION TIME  TEMP    WIND        PRES
                       AIR SEA DIR/SP/G
                 (UTC) (F)     (DEG/KT/KT) (MB)
THOMAS PT LIGHT  1600   58 58   30/ 10/ 11 1010.3S
BALT KEY BRIDGE  1500   59      50/  4/  6 1009.1R
COVE POINT       1500   59     350/  4/  5 1009.5R
LEWISETTA        1500   66 63  290/  4/  6 1008.7R
SOLOMONS ISLAND  1500   66 61  270/  3/  4   N/A
PINEY POINT      1500          320/  8/  8   N/A

$$




USA.gov is the U.S. government's official web portal to all federal, state and local government web resources and services.